Погода в Зиновкином

Россия / Брянская область     52°27′01″N   34°34′57″E
темп.,
°C
ветер,
м/с
пор.,
м/с
влажн.,
%
обл.,
%
осадки,
мм/ч
давл.,
гПа
погр.,
м
7 августа, вс
вс700:00+20юв22685 0.0 101817
03:00+18юв23685 0.0 101737
06:00+17юв22685 0.0 101820
09:00+23юв235399 0.0 1017262
12:00+28ююв2340100 0.0 1017837
15:00+29ююз2335100 0.0 10162150
18:00+27з2252100 0.0 101646
21:00+21ссв51078100 0.0 1017269
8 августа, пн
пн800:00+19с3787100 0.0 1018249
03:00+18с3694100 0.1 1019182
06:00+18всв369096 0.0 1019166
09:00+19св258569 0.3 1019187
12:00+24св216198 0.1 1019610
15:00+22сз237293 0.1 1019304
18:00+24сз226066 0.0 1019757
21:00+18с3794100 0.6 1020177
9 августа, вт
вт900:00+17сз1298100 5.8 102168
03:00+16с369869 7.4 1020183
06:00+15ссз2498100 0.1 1020141
09:00+18с3489100 0.2 1020399
12:00+21с347397 0.0 1020831
15:00+24ссв3355100 0.0 10201395
18:00+22ссв346688 0.0 1020692
21:00+18ссв2580100 0.1 102092
10 августа, ср
ср1000:00+17ссв3882100 0.1 1020233
03:00+17с2785100 0.1 1020259
06:00+17всв3976100 0.0 1020402
09:00+18св4773100 0.0 1021649
12:00+20ссв4661100 0.0 10211124
15:00+23св4549100 0.0 10211593
18:00+22св2556100 0.0 1020659
21:00+17ссв117899 0.0 102130
11 августа, чт
чт1100:00+16ссв4117238 0.0 1022350
03:00+15ссв4107448 0.0 1022339
06:00+12ссв411865 0.0 1023313
09:00+17св596710 0.0 1024619
12:00+21св674836 0.0 10231185
15:00+23св56434 0.0 10231501
18:00+22св46520 0.0 1022985
21:00+16св39720 0.0 1023170